Regional Weather Roundup
Issued by NWS Charleston, SC

Current Version | Previous Version | Text Only | Print | Product List | Glossary Off
Versions: 1 2 3 4 5 6 7 8 9 10 11 12 13 14 15 16 17 18 19 20 21 22 23 24 25 26 27 28 29 30 31 32 33 34 35 36 37 38 39 40 41 42 43 44 45 46 47 48 49 50

074
ASUS42 KCHS 251913
RWRCHS

REGIONAL WEATHER ROUNDUP
NATIONAL WEATHER SERVICE CHARLESTON SC
300 PM EDT WED MAY 25 2016

NOTE: "FAIR" INDICATES FEW OR NO CLOUDS BELOW 12,000 FEET WITH NO
SIGNIFICANT WEATHER AND/OR OBSTRUCTIONS TO VISIBILITY.

NOT ALL STATIONS ARE QUALITY CONTROLLED. USE DATA WITH CAUTION...
ESPECIALLY DEWPOINT OBSERVATIONS.

SCZ027-030-031-034>040-042>050-252000-
...SOUTHEAST SOUTH CAROLINA...

CITY           SKY/WX    TMP DP  RH WIND       PRES   REMARKS
N CHARLESTON   PTSUNNY   87  57  35 S8        30.21F
WATERFRONT PRK   N/A     80  70  71 S12       30.20F
MOUNT PLEASANT FAIR      84  68  58 S13       30.22F
JOHNS ISLAND   FAIR      84  68  58 S12       30.22F
PINOPOLIS        N/A     88  64  45 VRB2      30.15F
MONCKS CORNER  FAIR      84  43  23 N5        30.21S
SUMMERVILLE    FAIR      88  57  35 SW3       30.22F
BEAUFORT MCAS  MOSUNNY   87  65  47 SE3       30.22F
BEAUFORT ARPT  FAIR      84  61  45 S8        30.22F
HILTON HEAD IS MOSUNNY   82  70  65 S12       30.24F
WALTERBORO     CLEAR     90  46  22 W3        30.22S
ALLENDALE      FAIR      88  52  29 CALM      30.21S

...SOUTHERN MIDLANDS AND PEE DEE...

CITY           SKY/WX    TMP DP  RH WIND       PRES   REMARKS
GEORGETOWN     CLOUDY    81  64  57 SE9       30.22S
KINGSTREE      FAIR      86  52  30 CALM      30.20F
ORANGEBURG     PTSUNNY   85  53  33 S7        30.21F
BARNWELL       MOCLDY    91  55  29 CALM      30.22S
AIKEN          FAIR      86  52  30 SE3       30.25F
MANNING        FAIR      86  45  23 SW7       30.21F
COLUMBIA       PTSUNNY   87  56  34 W3        30.20F
SUMTER         SUNNY     85  55  35 VRB5      30.19F
FLORENCE       MOSUNNY   87  55  33 S3        30.20F
MYRTLE BEACH   SUNNY     82  64  54 S14       30.23F
N MYRTLE BEACH SUNNY     80  70  71 S13       30.21F

$$

GAZ063-065-086>088-099>101-113>116-118-119-134>141-150-252000-
...SOUTHEAST GEORGIA...

CITY           SKY/WX    TMP DP  RH WIND       PRES   REMARKS
SAVANNAH ARPT  PTSUNNY   87  61  41 SE10      30.22F
HUNTER AAF     MOSUNNY   84  68  58 SE6       30.20F
FORT STEWART   PTSUNNY   87  56  34 VRB1      30.19F
STATESBORO     SUNNY     87  57  35 CALM      30.22F
SYLVANIA       CLEAR     87  54  31 CALM      30.23S
CLAXTON        FAIR      88  60  38 CALM      30.21F

...CSRA...CENTRAL AND FAR SOUTHEAST GEORGIA...

CITY           SKY/WX    TMP DP  RH WIND       PRES   REMARKS
THOMSON        SUNNY     89  58  34 S3        30.26F
AUGUSTA-BUSH   MOSUNNY   87  54  32 S7        30.20F
AUGUSTA-DANIEL SUNNY     88  53  30 CALM      30.22F
SWAINSBORO     MOCLDY    88  52  29 W5        30.22F
VIDALIA        MOSUNNY   86  54  32 S3        30.22S
EASTMAN        MOCLDY    87  55  32 SW5       30.23F
HAZLEHURST     FAIR      88  54  30 CALM      30.20F
ALMA           MOSUNNY   88  54  31 VRB6      30.21S
WAYCROSS       MOSUNNY   88  57  34 S6        30.21S
JESUP          FAIR      84  55  37 SE5       30.21F
BAXLEY         FAIR      90  52  27 S8        30.21F
BRUNSWICK      SUNNY     90  61  37 SE9       30.23F
SAINT SIMONS   SUNNY     82  66  58 SE13G20   30.23F

$$

SCZ027-028-034-036>038-045-046-048>050-GAZ119-141-252000-
...LAKE AND SUPPLEMENTAL COASTAL OBSERVATIONS...

STATION/POSITION TIME  TEMP    WIND        PRES    WAVE   SWELL
                       AIR SEA DIR/SP/G            HT/PER HT/PER/DIR
                 (UTC) (F)     (DEG/KT/KT) (MB)    (FT/S) (FT/S/D)
WINYAH BAY       NOT AVBL
LAKE MURRAY      1800   83     240/  4/  7 1022.7F
ACE BASIN NERRS  NOT AVBL
FORT PULASKI     1800   80 76  160/  6/  9 1024.4F
SAPELO ISLAND    1800   86     160/  8     1024.0S

$$

ANZ835-935-AMZ111-154-330-350-352-354-370-450-454-472-252000-
...C-MAN AND BUOY OBSERVATIONS...

STATION/POSITION TIME  TEMP    WIND        PRES    WAVE   SWELL
                       AIR SEA DIR/SP/G            HT/PER HT/PER/DIR
                 (UTC) (F)     (DEG/KT/KT) (MB)    (FT/S) (FT/S/D)
BUOY 41004       1850   78 80  250/  2/  4 1023.8F   2/ 8   2/ 8
BUOY 41008       1850   77 79  200/  4/  6 1023.9F   2/ 9   2/ 90/ 9
FOLLY BEACH CMAN 1900   78     190/ 10/ 12 1023.8F
CAPERS NEARSHORE 1808   76 76  200/ 10/ 14 1023.7F
FRIPP NEARSHORE  1808   76 77  180/  8/ 10 1023.7F


STATION/POSITION TIME  TEMP    WIND        PRES    WAVE   SWELL
                       AIR SEA DIR/SP/G            HT/PER HT/PER/DIR
                 (UTC) (F)     (DEG/KT/KT) (MB)    (FT/S) (FT/S/D)
5E ST. MARYS GA  1821      79                N/A     2/10
FRYING PAN BUOY  1800   76 77  230/  6/  8 1023.9F
BUOY 41025       1850   72 71  230/  8/ 10 1023.2F   2/ 8   2/140/ 8
CAPE LOOKOUT NC  1900   75     200/ 11/ 14 1022.9F
BUOY 41002       1850   75 79   60/ 10/ 12 1023.9F   3/ 7   3/ 80/ 7
BUOY 41010       1820   76 79   30/ 10/ 12 1023.7F
ST AUGUSTINE FL  1900   78 81  120/  9/ 10 1024.4F


$$




USA.gov is the U.S. government's official web portal to all federal, state and local government web resources and services.